{"data":{"norad_id":64838,"epoch":"2026-09-21T20:11:05.844768Z","epoch_age_seconds":55404,"freshness":"FRESH","line1":"1 64838U 25151Y   26264.84103987  .00001837  00000+0  26988-3 0  9997","line2":"2 64838  51.9003 145.6941 0000938 106.3965 253.7101 14.79933383 64457","mean_motion":14.79933383,"eccentricity":9.38e-5,"inclination_deg":51.9003,"raan_deg":145.6941,"arg_perigee_deg":106.3965,"mean_anomaly_deg":253.7101,"bstar":0.00026988,"rev_number":6445,"period_min":97.301676990416,"perigee_km":628.87710055995,"apogee_km":630.19173971837,"semimajor_km":7007.6714201392,"source":"CELESTRAK","updated_at":"2026-09-22T09:00:29.979507Z"}}